Probability
0 0 0 0 0 0 0 0 0 0 0 0 0 0 0 0 0 0 0 0 0 0 0 0 0 0 0 0 0 0 0 0 0 0 0 0 0 0 0 0 0 0 0
0 0 0 0 0 0 0 0 0 0 0 0 0 0 0 0 0 0 0 0 0 0 0 0 0 0 0 0 0 0 0 0 0 0 0 0 0 0 0 0 0 0 0
0 0 0 0 0 0 0 0 0 0 0 0 0 0 0 0 0 0 0 0 0 0 0 0 0 0 0 0 0 0 0 0 0 0 0 0 0 0 0 0 0 0 0
0 0 0 0 0 0 0 0 0 0 0 0 0 0 0 0 0 0 0 0 0 0 0 0 0 0 0 0 0 0 0 0 0 0 0 0 0 0 0 0 0 0 0
0 0 0 0 0 0 0 0 0 0 0 0 0 0 0 0 0 0 0 0 0 0 0 0 0 0 0 0 0 0 0 0 0 0 0 0 0 0 0 0 0 0 0
0 0 0 0 0 0 0 0 0 0 0 0 0 0 0 0 0 0 0 0 0 0 0 0 0 0 0 0 0 0 0 0 0 0 0 0 0 0 0 0 0 0 0
0 0 0 0 0 0 0 0 0 0 0 0 0 0 0 0 0 0 0 0 0 0 0 0 0 0 0 0 0 0 0 0 0 0 0 0 0 0 0 0 0 0 0
0 0 0 0 0 0 0 0 0 0 0 0 0 0 0 0 0 0 0 0 0 0 0 0 0 0 0 0 0 0 0 0 0 0 0 0 0 0 0 0 0 0 0
0 0 0 0 0 0 0 0 0 0 0 0 0 0 0 0 0 0 0 0 0 0 0 0 0 0 0 0 0 0 0 0 0 0 0 0 0 0 0 0 0 0 0
0 0 0 0 0 0 0 0 0 0 0 0 0 0 0 0 0 0 0 0 0 0 0 0 0 0 0 0 0 0 0 0 0 0 0 0 0 0 0 0 0 0 0
0 0 0 0 0 0 0 0 0 0 0 0 0 0 0 0 0 0 0 0 0 0 0 0 0 0 0 0 0 0 0 0 0 0 0 0 0 0 0 0 0 0 0
0 0 0 0 0 0 0 0 0 0 0 0 0 0 0 0 0 0 0 0 0 0 0 0 0 0 0 0 0 0 0 0 0 0 0 0 0 0 0 0 0 0 0
0 0 0 0 0 0 0 0 0 0 0 0 0 0 0 0 0 0 0 0 0 0 0 0 0 0 0 0 0 0 0 0 0 0 0 0 0 0 0 0 0 0 0
0 0 0 0 0 0 0 0 0 0 0 0 0 0 0 0 0 0 0 0 0 0 0 0 0 0 0 0 0 0 0 0 0 0 0 0 0 0 0 0 0 0 0
0 0 0 0 0 0 0 0 0 0 0 0 0 0 0 0 0 0 0 0 0 0 0 0 0 0 0 0 0 0 0 0 0 0 0 0 0 0 0 0 0 0 0
0 0 0 0 0 0 0 0 0 0 0 0 0 0 0 0 0 0 0 0 0 0 0 0 0 0 0 0 0 0 0 0 0 0 0 0 0 0 0 0 0 0 0
0 0 0 0 0 0 0 0 0 0 0 0 0 0 0 0 0 0 0 0 0 0 0 0 0 0 0 0 0 0 0 0 0 0 0 0 0 0 0 0 0 0 0
0 0 0 0 0 0 0 0 0 0 0 0 0 0 0 0 0 0 0 0 0 0 0 0 0 0 0 0 0 0 0 0 0 0 0 0 0 0 0 0 0 0 0
0 0 0 0 0 0 0 0 0 0 0 0 0 0 0 0 0 0 0 0 0 0 0 0 0 0 0 0 0 0 0 0 0 0 0 0 0 0 0 0 0 0 0
0 0 0 0 0 0 0 0 0 0 0 0 0 0 0 0 0 0 0 0 0 0 0 0 0 0 0 0 0 0 0 0 0 0 0 0 0 0 0 0 0 0 0
0 0 0 0 0 0 0 0 0 0 0 0 0 0 0 0 0 0 0 0 0 0 0 0 0 0 0 0 0 0 0 0 0 0 0 0 0 0 0 0 0 0 0
0 0 0 0 0 0 0 0 0 0 0 0 0 0 0 0 0 0 0 0 0 0 0 0 0 0 0 0 0 0 0 0 0 0 0 0 0 0 0 0 0 0 0
0 0 0 0 0 0 0 0 0 0 0 0 0 0 0 0 0 0 0 0 0 0 0 0 0 0 0 0 0 0 0 0 0 0 0 0 0 0 0 0 0 0 0
0 0 0 0 0 0 0 0 0 0 0 0 0 0 0 0 0 0 0 0 0 0 0 0 0 0 0 0 0 0 0 0 0 0 0 0 0 0 0 0 0 0 0
0 0 0 0 0 0 0 0 0 0 0 0 0 0 0 0 0 0 0 0 0 0 0 0 0 0 0 0 0 0 0 0 0 0 0 0 0 0 0 0 0 0 0
0 0 0 0 0 0 0 0 0 0 0 0 0 0 0 0 0 0 0 0 0 0 0 0 0 0 0 0 0 0 0 0 0 0 0 0 0 0 0 0 0 0 0
Wind_Speed
5 5 5 5 6 6 6 7 7 7 8 8 8 8 7 7 6 6 7 7 8 8 8 9 10 9 7 6 6 6 6 6 6 5 4 5 10 10 10 9 8 9 9
3 4 4 4 5 5 6 7 7 8 8 8 8 8 8 7 7 6 7 8 8 9 9 10 11 8 11 8 7 8 7 7 6 6 5 5 7 12 11 10 7 7 7
2 4 4 4 4 5 5 6 6 7 8 8 8 8 8 8 8 7 8 8 9 10 10 11 11 10 12 9 9 9 8 7 5 5 6 4 3 8 10 7 7 5 7
2 4 4 4 5 5 5 6 6 7 7 8 8 8 8 9 9 8 8 9 9 10 10 11 11 12 13 11 10 10 8 9 8 5 5 5 4 7 10 9 8 8 8
3 4 5 5 5 6 6 6 6 7 8 8 8 9 9 8 8 9 9 9 10 11 11 12 12 14 16 14 11 10 10 10 9 8 6 5 7 10 13 10 10 8 7
4 6 6 7 7 7 7 7 7 8 8 8 9 9 10 9 16 21 16 10 10 12 13 13 13 14 17 22 24 20 19 16 15 14 12 11 14 11 11 11 11 9 8
5 7 8 8 9 9 8 8 9 9 9 11 11 11 12 14 23 24 22 14 12 13 14 13 12 11 14 13 18 24 24 29 27 19 17 17 13 14 17 16 16 12 10
7 8 8 9 10 10 9 10 10 9 11 12 13 13 15 18 26 27 26 17 14 15 15 16 16 15 14 15 13 15 17 19 23 20 18 14 10 13 18 17 17 9 4
7 8 8 8 9 10 11 12 11 10 12 13 15 15 16 20 28 30 29 13 13 16 16 16 17 17 23 26 19 17 19 18 25 26 21 15 14 19 19 10 11 11 6
7 8 8 8 9 11 13 14 12 12 15 17 18 16 16 19 28 34 33 14 14 16 15 15 19 24 26 28 20 18 20 18 12 13 18 19 14 15 27 20 16 15 8
9 10 11 10 11 13 14 14 14 16 18 18 20 20 19 21 28 36 36 19 15 15 14 13 14 25 29 30 27 19 23 18 10 13 13 11 10 10 14 15 13 11 13
10 11 11 11 11 11 13 14 14 15 18 18 19 20 17 18 23 28 34 32 28 18 16 13 15 26 28 29 24 25 30 24 11 12 13 14 14 13 10 10 8 4 3
10 11 12 12 10 10 12 14 13 13 14 15 15 17 16 14 17 29 32 34 35 23 15 23 26 29 28 23 27 29 22 15 13 13 14 14 12 10 8 8 8 6 6
11 12 13 12 12 11 10 11 12 12 13 15 15 16 16 15 14 14 14 16 22 21 17 16 24 29 26 22 16 18 15 13 13 13 11 9 8 9 10 10 9 10 8
12 13 13 12 13 12 12 11 14 14 17 19 16 16 17 16 18 27 22 16 14 15 16 12 10 10 11 11 12 12 12 13 13 12 11 11 11 11 10 9 9 10 9
13 13 12 12 12 13 13 14 21 25 31 35 34 32 23 29 36 36 36 36 36 35 26 15 13 11 11 11 11 11 11 12 12 12 11 12 12 12 10 9 10 9 9
12 14 12 12 13 13 14 14 15 19 26 31 33 35 33 34 35 35 34 33 33 32 21 15 13 12 10 9 9 9 10 10 10 10 11 11 11 12 12 12 12 11 10
12 13 13 12 12 13 13 14 15 16 16 16 21 29 32 32 31 31 31 26 17 16 13 14 12 11 9 8 7 7 7 8 9 9 10 11 12 12 13 13 13 12 10
12 10 10 11 12 12 13 14 14 15 15 15 14 17 21 25 27 28 25 13 10 11 11 12 11 10 8 7 7 7 7 8 9 9 10 11 11 12 12 12 11 14 11
9 14 13 11 11 12 12 13 13 14 14 14 13 13 13 12 11 12 11 9 9 9 9 9 8 8 7 7 7 7 7 8 9 9 9 10 10 10 11 12 11 11 10
9 10 12 11 10 11 11 12 13 13 12 13 12 16 24 13 11 12 11 10 10 9 7 6 4 4 5 5 6 7 8 7 8 8 8 9 9 9 9 10 10 10 10
8 8 8 9 9 10 11 11 11 12 12 13 12 14 20 12 10 10 10 10 11 10 8 5 4 3 3 3 5 6 7 8 8 8 8 8 9 9 10 10 10 10 10
6 8 8 8 8 11 11 10 10 11 11 11 12 11 11 10 10 10 10 10 10 10 10 9 8 8 7 7 6 5 6 7 7 9 10 10 9 10 10 11 13 12 11
6 6 7 8 8 8 9 10 10 11 11 11 11 10 10 10 10 11 10 10 10 10 10 9 10 12 12 9 7 7 6 6 7 7 10 10 10 10 10 10 11 12 11
5 5 6 6 7 7 8 9 9 10 10 10 10 10 11 10 10 10 10 10 11 11 13 12 9 10 13 12 10 8 10 11 9 7 8 9 10 10 10 11 10 10 9
5 5 5 5 5 6 7 8 9 10 9 10 10 10 10 10 10 10 10 10 10 9 10 10 12 13 12 10 11 12 12 13 13 11 8 8 9 9 9 9 10 9 8
Wind_Direction
3 352 356 1 358 356 359 356 347 343 341 340 333 327 318 302 279 261 254 252 248 246 242 241 242 237 238 231 222 215 206 187 194 187 172 167 171 180 184 181 184 180 189
345 336 339 350 353 351 349 343 338 336 334 331 328 324 318 310 295 275 263 255 250 248 245 245 246 238 236 226 219 219 215 206 180 171 173 162 182 185 178 180 185 182 182
325 321 324 333 335 331 330 327 327 326 323 322 322 320 315 309 299 284 268 259 251 248 244 245 245 238 239 228 221 220 216 214 203 170 172 164 165 172 169 178 186 189 191
308 308 308 309 309 308 307 307 308 308 307 307 306 303 301 298 293 286 277 268 261 255 248 246 244 240 240 229 225 222 213 212 211 191 173 167 161 168 173 178 191 198 197
303 302 297 298 296 292 287 285 287 290 290 289 291 291 289 287 283 285 280 271 267 264 257 251 248 246 242 234 229 220 211 215 211 206 193 170 176 173 187 185 195 189 200
295 293 294 294 290 284 280 280 284 285 284 284 281 279 278 277 284 287 285 274 269 266 264 258 252 249 250 248 241 229 216 216 215 215 211 203 199 189 180 181 178 173 203
277 281 285 285 285 283 281 282 283 285 285 284 280 275 273 273 281 283 281 276 268 266 264 262 257 248 241 244 248 245 234 227 221 216 222 219 201 190 184 185 190 190 197
268 269 269 270 273 276 276 276 279 282 283 284 285 281 279 276 279 280 279 274 266 261 259 257 257 254 243 239 238 240 241 237 231 225 228 225 207 194 194 194 193 178 89
276 275 277 281 285 286 284 284 285 284 283 281 281 278 276 278 279 280 279 270 263 261 257 254 252 253 251 245 239 238 241 243 242 233 228 223 216 200 188 179 175 173 176
300 309 316 317 311 304 300 298 297 291 287 286 283 280 278 278 279 281 279 271 263 260 257 252 248 250 251 248 240 236 238 237 226 232 231 228 217 208 197 193 186 189 179
329 325 322 321 317 309 304 301 299 295 291 286 284 281 278 276 278 279 277 269 260 259 256 252 247 251 252 250 243 236 238 233 218 219 223 218 207 203 203 200 198 194 189
326 318 313 308 303 300 295 294 292 290 288 285 283 281 277 276 277 277 276 272 267 258 253 250 247 253 254 253 249 240 238 235 223 216 218 217 214 211 204 193 187 195 186
315 308 303 299 294 291 289 291 290 286 284 285 285 285 285 284 285 288 289 287 282 273 261 254 252 254 255 256 254 246 237 226 217 214 216 217 213 204 190 177 158 126 100
306 305 303 301 297 291 286 287 287 285 284 283 284 284 285 284 285 286 286 289 287 285 283 274 266 261 259 250 244 244 230 219 213 214 213 206 192 188 188 184 178 165 146
304 304 304 300 296 294 289 282 284 275 274 281 277 274 278 278 273 276 274 273 276 274 279 277 267 254 247 244 239 229 219 212 210 209 203 195 191 190 188 181 174 170 169
306 306 304 302 299 296 295 292 288 289 290 290 288 287 285 284 288 286 283 280 279 276 276 267 260 252 247 243 237 223 212 209 206 203 198 193 188 184 176 169 170 175 177
298 300 300 298 297 296 295 296 296 295 293 293 292 292 290 290 290 289 285 281 276 272 266 262 258 251 245 241 235 218 208 205 200 198 192 185 177 172 168 169 174 181 183
296 295 293 292 292 293 294 295 295 297 298 295 293 293 294 295 295 293 289 283 271 263 255 255 254 249 240 230 221 210 201 196 194 189 181 175 171 170 172 175 178 181 179
297 293 292 292 294 295 296 296 296 296 296 298 297 298 299 299 299 296 297 285 268 255 248 247 242 236 228 213 201 196 192 187 181 176 174 172 171 171 172 174 175 176 170
295 295 299 298 300 301 302 303 304 305 305 307 311 312 312 308 304 304 304 296 283 269 256 250 239 219 204 193 183 176 173 172 172 171 168 166 166 167 167 166 168 168 167
298 299 302 305 306 307 309 310 311 312 314 316 317 319 332 335 327 325 325 323 318 301 275 250 223 187 172 166 164 163 161 159 158 156 154 155 156 155 155 156 156 154 152
301 305 307 308 310 313 315 315 317 319 322 323 324 328 336 339 335 335 336 337 338 341 345 1 34 49 72 111 134 139 140 139 141 142 143 144 144 144 144 146 148 148 146
303 306 311 312 314 317 320 322 324 326 328 330 331 334 338 341 342 343 344 345 351 357 4 16 30 37 42 48 60 93 120 132 137 142 143 143 143 145 146 148 147 145 145
303 310 315 318 322 325 325 326 328 331 332 334 337 340 343 345 348 351 353 355 1 8 14 23 34 41 48 52 55 63 80 101 116 131 138 141 141 142 141 141 140 142 141
309 313 317 321 325 326 327 329 332 335 338 341 344 347 349 352 356 359 1 5 11 19 23 25 27 34 47 55 60 70 93 104 110 116 123 128 130 130 131 130 131 133 135
316 321 324 325 327 328 331 334 336 339 342 346 348 350 353 357 0 3 7 12 16 21 24 27 32 39 46 55 67 79 88 94 96 100 105 112 115 117 120 121 126 128 132